This is the latest recevied weather packets stored in our database for station/object W0WC. If no packets are shown the sender has not sent any weather packets the latest 10 day(s).
| Time | Temp. | Humidity | Pressure | Rain* | Wind** | Luminosity | Snow |
|---|---|---|---|---|---|---|---|
| 1787919174 | 19.44° C | 78% | 1021.2 hPa | 0 mm | - | 25 W/m² | - |
| 1787918874 | 19.44° C | 79% | 1021.2 hPa | 0 mm | - | 21 W/m² | - |
| 1787918569 | 19.44° C | 78% | 1021 hPa | 0 mm | - | 16 W/m² | - |
| 1787918267 | 19.44° C | 78% | 1021.2 hPa | 0 mm | - | 12 W/m² | - |
| 1787917961 | 20° C | 77% | 1020.9 hPa | 0 mm | - | 7 W/m² | - |
| 1787917656 | 20° C | 77% | 1020.8 hPa | 0 mm | - | 4 W/m² | - |
| 1787917354 | 20° C | 76% | 1020.5 hPa | 0 mm | - | 2 W/m² | - |
| 1787917054 | 20° C | 77% | 1020.6 hPa | 0 mm | - | 1 W/m² | - |
| 1787916754 | 20° C | 77% | 1020.5 hPa | 0 mm | - | 0 W/m² | - |
| 1787916448 | 20° C | 77% | 1020.5 hPa | 0 mm | - | 0 W/m² | - |
| 1787916144 | 20° C | 77% | 1020.5 hPa | 0 mm | - | 0 W/m² | - |
| 1787915839 | 19.44° C | 77% | 1020.3 hPa | 0 mm | - | 0 W/m² | - |
| 1787915534 | 19.44° C | 78% | 1020.4 hPa | 0 mm | - | 0 W/m² | - |
| 1787915228 | 19.44° C | 77% | 1020.4 hPa | 0 mm | - | 0 W/m² | - |
| 1787914928 | 19.44° C | 77% | 1020.2 hPa | 0 mm | - | 0 W/m² | - |
| 1787914627 | 20° C | 77% | 1020.4 hPa | 0 mm | - | 0 W/m² | - |
| 1787914322 | 20° C | 77% | 1020 hPa | 0 mm | - | 0 W/m² | - |
| 1787914022 | 20° C | 77% | 1020.1 hPa | 0 mm | - | 0 W/m² | - |
| 1787913720 | 19.44° C | 77% | 1019.8 hPa | 0 mm | - | 0 W/m² | - |
| 1787913416 | 19.44° C | 77% | 1020.2 hPa | 0 mm | - | 0 W/m² | - |
| 1787913115 | 19.44° C | 78% | 1020.3 hPa | 0 mm | - | 0 W/m² | - |
| 1787912814 | 19.44° C | 78% | 1020 hPa | 0 mm | - | 0 W/m² | - |
| 1787912509 | 19.44° C | 77% | 1020.2 hPa | 0 mm | - | 0 W/m² | - |
| 1787912209 | 19.44° C | 77% | 1020 hPa | 0 mm | - | 0 W/m² | - |
| 1787911903 | 19.44° C | 77% | 1020 hPa | 0 mm | - | 0 W/m² | - |
* Rain latest hour (hover to see other rain measurements)
** Current wind speed in m/s (hover to see current wind gust speed)